Weather History for Pensacola NAS, FL

Change the Weather History Date:

Thursday, November 8, 2012

  Actual Average Record
Temperature  
Mean Temperature 50 °F -  
Max Temperature 62 °F 71 °F 82 °F (2000)
Min Temperature 39 °F 52 °F 37 °F (2007)
Degree Days  
Heating Degree Days 14    
Moisture  
Dew Point 41 °F    
Average Humidity 75    
Maximum Humidity 100    
Minimum Humidity 44    
Precipitation  
Precipitation 0.00 in - - ()
Sea Level Pressure  
Sea Level Pressure 30.19 in    
Wind  
Wind Speed 5 mph (North)    
Max Wind Speed 8 mph    
Max Gust Speed -    
Visibility 10 miles    
Events Rain    
Averages and records for this station are not official NWS values.
T = Trace of Precipitation, MM = Missing Value Source: NWS Daily Summary

Daily Weather History Graph

Daily Weather History Graph

Search for Another Location

Airport:

Trip Planner

Search our weather history database for the weather conditions in past years. The results will help you decide how hot, cold, wet, or windy it might be!

Date:

Astronomy

Nov. 08, 2012 Rise Set
Actual Time 6:09 AM CST 4:56 PM CST
Civil Twilight 5:44 AM CST 5:21 PM CST
Nautical Twilight 5:15 AM CST 5:50 PM CST
Astronomical Twilight 4:47 AM CST 6:18 PM CST
Moon 12:28 AM CST (11/8) 1:15 PM CST (11/8)
Length of Visible Light 11h 36m
Length of Day
10h 46m
Waning Crescent, 32% of the Moon is Illuminated
Nov 8
Waning Crescent
Nov 13
New
Nov 20
First Quarter
Nov 28
Full
Dec 6
Last Quarter

Hourly Weather History & Observations

Time (CST) Temp. Windchill Dew Point Humidity Pressure Visibility Wind Dir Wind Speed Gust Speed Precip Events Conditions
12:56 AM 46.9 °F - 37.0 °F 68% 30.13 in 10.0 mi North 5.8 mph - N/A   Clear
1:56 AM 45.0 °F 41.8 °F 37.0 °F 74% 30.14 in 10.0 mi NNW 5.8 mph - N/A   Clear
2:56 AM 45.0 °F 42.6 °F 37.9 °F 76% 30.15 in 10.0 mi NNW 4.6 mph - N/A   Clear
3:56 AM 43.0 °F 39.5 °F 37.9 °F 82% 30.16 in 10.0 mi North 5.8 mph - N/A   Clear
4:56 AM 42.1 °F 39.2 °F 37.9 °F 85% 30.17 in 10.0 mi North 4.6 mph - N/A   Clear
5:56 AM 39.9 °F 35.1 °F 37.0 °F 89% 30.19 in 10.0 mi NNW 6.9 mph - N/A   Clear
6:56 AM 43.0 °F 38.8 °F 39.0 °F 86% 30.21 in 10.0 mi North 6.9 mph - N/A   Clear
7:56 AM 48.9 °F - 41.0 °F 74% 30.23 in 10.0 mi North 5.8 mph - N/A   Clear
8:56 AM 54.0 °F - 42.1 °F 64% 30.24 in 10.0 mi NNE 5.8 mph - N/A   Clear
9:56 AM 57.0 °F - 42.1 °F 57% 30.25 in 10.0 mi Variable 3.5 mph - N/A   Clear
10:56 AM 61.0 °F - 39.9 °F 46% 30.23 in 10.0 mi NNE 8.1 mph - N/A   Clear
11:56 AM 62.1 °F - 39.9 °F 44% 30.20 in 10.0 mi ENE 5.8 mph - N/A   Clear
12:56 PM 61.0 °F - 43.0 °F 52% 30.18 in 10.0 mi South 5.8 mph - N/A   Clear
1:56 PM 62.1 °F - 43.0 °F 50% 30.17 in 10.0 mi South 6.9 mph - N/A   Clear
2:56 PM 62.1 °F - 44.1 °F 52% 30.17 in 10.0 mi SSW 5.8 mph - N/A   Clear
3:56 PM 60.1 °F - 46.0 °F 60% 30.17 in 10.0 mi SW 6.9 mph - N/A   Clear
4:56 PM 55.9 °F - 46.9 °F 72% 30.18 in 10.0 mi Calm Calm - N/A   Clear
5:56 PM 48.9 °F - 46.0 °F 90% 30.19 in 10.0 mi Calm Calm - N/A   Clear
6:56 PM 45.0 °F - 44.1 °F 97% 30.20 in 10.0 mi Calm Calm - N/A   Clear
7:56 PM 43.0 °F - 43.0 °F 100% 30.21 in 10.0 mi Calm Calm - N/A   Clear
8:56 PM 41.0 °F - 41.0 °F 100% 30.22 in 10.0 mi Calm Calm - N/A   Clear
9:56 PM 41.0 °F - 39.9 °F 96% 30.22 in 10.0 mi Calm Calm - N/A   Clear
10:56 PM 41.0 °F - 39.9 °F 96% 30.22 in 10.0 mi Calm Calm - N/A   Clear
11:56 PM 39.9 °F - 39.9 °F 100% 30.22 in 7.0 mi Calm Calm - 0.00 in Rain Light Rain